TimeCST,TemperatureF,Dew PointF,Humidity,Sea Level PressureIn,VisibilityMPH,Wind Direction,Wind SpeedMPH,Gust SpeedMPH,PrecipitationIn,Events,Conditions,WindDirDegrees,DateUTC
12:15 AM,42.1,30.2,63,30.06,10.0,ESE,9.2,-,N/A,,Overcast,110,2014-02-04 06:15:00
12:35 AM,41.9,29.7,62,30.04,10.0,East,10.4,-,N/A,,Overcast,100,2014-02-04 06:35:00
12:55 AM,41.9,29.1,61,30.05,10.0,East,9.2,-,N/A,,Overcast,100,2014-02-04 06:55:00
1:15 AM,41.7,29.5,62,30.03,10.0,ESE,9.2,-,N/A,,Overcast,110,2014-02-04 07:15:00
1:35 AM,41.5,29.7,63,30.02,10.0,East,10.4,-,N/A,,Overcast,100,2014-02-04 07:35:00
1:55 AM,41.2,29.3,63,30.00,10.0,East,11.5,-,N/A,,Overcast,100,2014-02-04 07:55:00
2:15 AM,41.0,29.8,64,29.98,10.0,East,12.7,-,N/A,,Overcast,100,2014-02-04 08:15:00
2:35 AM,40.5,30.0,66,30.00,10.0,East,10.4,-,N/A,,Overcast,100,2014-02-04 08:35:00
2:55 AM,40.3,30.6,68,30.00,10.0,ESE,11.5,-,N/A,,Overcast,110,2014-02-04 08:55:00
3:15 AM,39.7,31.3,72,30.01,10.0,East,9.2,-,N/A,,Light Drizzle,90,2014-02-04 09:15:00
3:35 AM,39.2,31.6,74,29.99,10.0,ESE,11.5,-,N/A,,Overcast,110,2014-02-04 09:35:00
3:55 AM,38.5,31.8,77,29.99,10.0,ESE,13.8,18.4,N/A,,Overcast,110,2014-02-04 09:55:00
4:15 AM,38.5,31.8,77,29.99,10.0,East,10.4,-,N/A,,Drizzle,100,2014-02-04 10:15:00
4:35 AM,36.9,33.8,89,29.99,7.0,ESE,10.4,-,N/A,Rain,Light Rain,110,2014-02-04 10:35:00
4:55 AM,36.5,33.8,90,29.98,5.0,ESE,11.5,-,N/A,,Overcast,110,2014-02-04 10:55:00
5:15 AM,36.0,33.8,92,29.97,7.0,East,11.5,-,N/A,,Overcast,100,2014-02-04 11:15:00
5:35 AM,35.6,33.8,93,29.98,4.0,ESE,11.5,19.6,N/A,,Overcast,120,2014-02-04 11:35:00
5:55 AM,35.6,33.8,93,29.97,4.0,ESE,13.8,18.4,N/A,,Overcast,120,2014-02-04 11:55:00
6:15 AM,35.6,33.8,93,29.98,4.0,SE,12.7,16.1,N/A,,Overcast,130,2014-02-04 12:15:00
6:35 AM,35.6,33.8,93,29.97,3.0,SE,8.1,-,N/A,,Overcast,130,2014-02-04 12:35:00
6:55 AM,35.6,34.0,94,29.98,3.0,ESE,8.1,-,N/A,Snow,Light Snow,120,2014-02-04 12:55:00
7:15 AM,35.6,34.0,94,29.98,3.0,ESE,8.1,-,N/A,Snow,Light Snow,120,2014-02-04 13:15:00
7:35 AM,35.6,34.2,94,29.97,4.0,East,8.1,-,N/A,Snow,Light Snow,100,2014-02-04 13:35:00
7:55 AM,35.6,34.2,94,29.98,7.0,ESE,10.4,-,N/A,,Overcast,120,2014-02-04 13:55:00
8:15 AM,35.8,34.2,94,29.98,4.0,ESE,9.2,-,N/A,,Overcast,120,2014-02-04 14:15:00
8:35 AM,35.8,34.3,94,29.96,4.0,ESE,6.9,-,N/A,,Overcast,110,2014-02-04 14:35:00
8:55 AM,35.8,34.3,94,29.96,7.0,ESE,11.5,-,N/A,,Overcast,120,2014-02-04 14:55:00
9:15 AM,36.1,34.7,94,29.96,4.0,SE,11.5,-,N/A,,Overcast,130,2014-02-04 15:15:00
9:35 AM,36.1,34.7,94,29.97,4.0,SE,6.9,-,N/A,,Overcast,130,2014-02-04 15:35:00
9:55 AM,36.3,34.7,94,29.97,7.0,ESE,8.1,-,N/A,,Overcast,120,2014-02-04 15:55:00
10:15 AM,36.5,34.7,93,29.97,10.0,ESE,6.9,-,N/A,,Overcast,120,2014-02-04 16:15:00
10:35 AM,36.5,34.7,93,29.97,5.0,ESE,5.8,-,N/A,,Overcast,120,2014-02-04 16:35:00
10:55 AM,36.5,35.1,95,29.96,7.0,ESE,5.8,-,N/A,,Overcast,120,2014-02-04 16:55:00
11:15 AM,36.7,35.2,95,29.96,10.0,ESE,4.6,-,N/A,,Overcast,120,2014-02-04 17:15:00
11:35 AM,36.9,35.6,95,29.95,10.0,ESE,5.8,-,N/A,,Overcast,110,2014-02-04 17:35:00
11:55 AM,36.9,35.6,95,29.93,10.0,ESE,6.9,-,N/A,,Overcast,120,2014-02-04 17:55:00
12:15 PM,37.4,35.8,94,29.93,10.0,ESE,4.6,-,N/A,,Overcast,120,2014-02-04 18:15:00
12:35 PM,37.6,36.0,94,29.92,10.0,ESE,6.9,-,N/A,,Overcast,120,2014-02-04 18:35:00
12:55 PM,37.8,36.1,94,29.90,10.0,SE,5.8,-,N/A,,Overcast,140,2014-02-04 18:55:00
1:15 PM,38.1,36.3,93,29.90,10.0,ESE,5.8,-,N/A,,Overcast,120,2014-02-04 19:15:00
1:35 PM,38.3,36.5,93,29.90,10.0,ESE,4.6,-,N/A,,Overcast,120,2014-02-04 19:35:00
1:55 PM,38.3,36.7,94,29.89,7.0,East,3.5,-,N/A,,Overcast,100,2014-02-04 19:55:00
2:15 PM,38.3,36.7,94,29.90,3.0,Calm,Calm,-,N/A,,Overcast,0,2014-02-04 20:15:00
2:35 PM,38.5,37.0,95,29.89,3.0,ESE,3.5,-,N/A,,Overcast,120,2014-02-04 20:35:00
2:55 PM,38.7,37.0,94,29.89,5.0,Calm,Calm,-,N/A,,Overcast,0,2014-02-04 20:55:00
3:15 PM,38.7,36.9,93,29.89,10.0,Calm,Calm,-,N/A,,Overcast,0,2014-02-04 21:15:00
3:35 PM,39.0,37.2,93,29.89,10.0,Calm,Calm,-,N/A,,Overcast,0,2014-02-04 21:35:00
3:55 PM,39.2,37.6,94,29.89,7.0,Calm,Calm,-,N/A,,Overcast,0,2014-02-04 21:55:00
4:15 PM,39.2,37.8,95,29.89,4.0,Calm,Calm,-,N/A,,Overcast,0,2014-02-04 22:15:00
4:35 PM,39.4,38.1,95,29.89,4.0,Calm,Calm,-,N/A,,Overcast,0,2014-02-04 22:35:00
4:55 PM,39.6,38.3,95,29.91,7.0,Calm,Calm,-,N/A,,Overcast,0,2014-02-04 22:55:00
5:15 PM,39.6,38.3,95,29.92,5.0,Calm,Calm,-,N/A,,Overcast,0,2014-02-04 23:15:00
5:35 PM,39.6,38.3,95,29.92,2.5,Calm,Calm,-,N/A,,Overcast,0,2014-02-04 23:35:00
6:15 PM,39.6,38.5,96,29.93,7.0,Calm,Calm,-,N/A,,Overcast,0,2014-02-05 00:15:00
6:35 PM,39.7,38.7,96,29.95,7.0,Calm,Calm,-,N/A,,Overcast,0,2014-02-05 00:35:00
6:55 PM,39.7,38.7,96,29.96,4.0,Calm,Calm,-,N/A,,Overcast,0,2014-02-05 00:55:00
7:15 PM,40.1,39.2,97,29.97,3.0,Calm,Calm,-,N/A,,Overcast,0,2014-02-05 01:15:00
7:35 PM,40.1,39.2,97,29.98,1.5,Calm,Calm,-,N/A,,Overcast,0,2014-02-05 01:35:00
7:55 PM,40.1,39.2,97,29.98,2.0,SW,4.6,-,N/A,,Overcast,220,2014-02-05 01:55:00
8:15 PM,40.1,39.2,97,29.99,3.0,SW,3.5,-,N/A,,Overcast,220,2014-02-05 02:15:00
8:35 PM,40.1,39.2,97,30.00,5.0,WSW,3.5,-,N/A,,Overcast,250,2014-02-05 02:35:00
8:55 PM,40.3,39.4,97,30.01,5.0,West,3.5,-,N/A,,Overcast,270,2014-02-05 02:55:00
9:15 PM,40.3,39.4,97,30.01,4.0,Calm,Calm,-,N/A,,Overcast,0,2014-02-05 03:15:00
9:35 PM,40.6,39.7,97,30.02,3.0,WNW,4.6,-,N/A,,Overcast,300,2014-02-05 03:35:00
9:55 PM,41.0,40.1,97,30.03,5.0,WNW,6.9,-,N/A,,Overcast,290,2014-02-05 03:55:00
10:15 PM,41.2,40.3,97,30.03,7.0,WNW,6.9,-,N/A,,Overcast,300,2014-02-05 04:15:00
10:35 PM,41.4,40.5,97,30.05,7.0,WNW,8.1,-,N/A,,Overcast,290,2014-02-05 04:35:00
10:55 PM,41.5,40.3,95,30.05,10.0,NW,9.2,-,N/A,,Overcast,310,2014-02-05 04:55:00
11:15 PM,41.5,39.6,93,30.06,10.0,NW,11.5,-,N/A,,Overcast,320,2014-02-05 05:15:00
11:35 PM,41.2,37.9,88,30.05,10.0,NNW,15.0,18.4,N/A,,Overcast,330,2014-02-05 05:35:00
11:55 PM,40.6,37.6,89,30.08,10.0,NW,12.7,-,N/A,,Mostly Cloudy,320,2014-02-05 05:55:00